Showing default

MOZHAYETS 4, 27939

Orbit data source: Space-Track

MOZHAYETS 4, 27939 is a payload satellite owned by Mozhaiskiy (CIS) in SSO that was launched on Sat, 27 Sep 2003 UTC via a KOSMOS 11K65M launch vehicle from the Plesetsk Missile And Space Complex (PKMTR). Payload-class satellites include a variety of spacecraft equipped with specific instruments for various scientific and technological missions. These include communications satellites like Starlink; space stations such as the ISS; scientific satellites like the Hubble; Earth observation satellites from companies like Planet Labs, Umbra, and HawkEye 360; GPS; miniature CubeSats for education and research; and military/defense satellites.

Loading next visibility...
Identifier
27939, 2003-042A
Orbit
SSO
Country
Flag of CISCIS
Related business
Manufacturer
NPO PM
Mission
Operational Civil Technology
Bus & Motor
STRELA-1M, Unknown motor
Mass
64 kg wet, 64 kg dry
Launch date (UTC)
2003-09-27 (22 years ago)
Launch vehicle
KOSMOS 11K65M
Launch site
Plesetsk Missile And Space Complex (PKMTR)
Object type
Payload
Rocket body
Debris
Shape & HBR
Poly, 0.5 m
Radar Cross Section
1.143 m², Medium (>0.1 m² and < 1m²)

Expand to show TLE details & history
Last TLE update: 4 hours ago

TLE from 4 hours ago
0 MOZHAYETS 4
1 27939U 03042A   25293.31930398  .00002542  00000-0  40610-3 0  9993
2 27939  98.3371 106.1078 0010532 313.6018 144.2096 14.72740416180235
Epoch: 2025-10-20T07:39Z
TLE epoch observation values (Epoch: 2025-10-20T07:39:47.863Z)
Latitude
78.59966°
Longitude
-171.57527°
Altitude
671.548 km
Speed
7.525 km/s
True Right ascension
22h 09m 35s
True Declination
78° 31' 55"
Sunlit
Object was in daylight at epoch
Visualization orbit readout
Latitude
Unknown
Longitude
Unknown
Altitude
Unknown
Speed
Unknown
Apparent Right ascension
Unknown
Apparent Declination
Unknown
Sunlit
N/A
Visualization observer readout
Local Sidereal Time
06:06:58
Azimuth
Unknown
Elevation
Unknown
Doppler factor
Unknown
Orbital elements
Apogee altitude
656.805 km
Perigee altitude
642.002 km
Semi-major axis
7,027.541 km
Eccentricity
0.00105
Inclination
98.3371°
RAAN
106.1078°
Arg. of periapsis
313.6018°
True anomaly
144.28011°
Mean anomaly
144.2096°
Eccentric anomaly
144.24486°
Mean motion
3.68416 °/min
Orbital period
97.72 mins
BSTAR
0.0004061
Loading maneuver chart data...
Computing Atmospheric mass density...
Loading historical data...
Loading historical data...
Loading historical data...
Loading historical data...
Loading historical data...
Loading historical data...
Loading historical data...
Other satellites on launch #42 in the year 2003 (2003-09-27 UTC)

Documentation

Showing up to 5 results
|